Regional Weather Roundup
Issued by NWS

Home | Current Version | Previous Version | Graphics & Text | Print | Product List | Glossary On
Versions: 1 2 3 4 5 6 7 8 9 10 11 12 13 14 15 16 17 18 19 20 21 22 23 24 25 26 27 28 29 30 31 32 33 34 35 36 37 38 39 40 41 42 43 44 45 46 47 48 49 50
000
ASUS45 KTFX 300410
RWRMT
MONTANA REGIONAL WEATHER ROUNDUP
NATIONAL WEATHER SERVICE GREAT FALLS MT
1000 PM MDT WED MAR 29 2017

NOTE: "FAIR" INDICATES FEW OR NO CLOUDS BELOW 12000 FEET WITH NO
SIGNIFICANT WEATHER AND/OR OBSTRUCTIONS TO VISIBILITY.

MTZ001>007-043-300500-
WEST OF THE DIVIDE

CITY           SKY/WX    TMP DP  RH WIND       PRES   REMARKS
KALISPELL      CLOUDY    44  41  89 SW8       29.83S
MISSOULA       CLOUDY    47  41  80 SE6       29.89F
BUTTE          LGT RAIN  43  37  79 CALM      29.92F
MULLAN PASS    LGT RAIN  34  34 100 SW10G23   29.84F VSB 3/4 WCI  26
ANACONDA         N/A     45  34  65 S12       29.90F
DEER LODGE       N/A     45  37  76 S5        29.91F
EUREKA           N/A     45  39  81 SE14      29.79F
HAMILTON         N/A     45  39  81 S12       29.91S
PLAINS           N/A     46  38  74 MISG      29.86F
RONAN            N/A     47  40  76 SE3       29.91S
$$

MTZ008-052>055-300500-
SOUTHWEST MONTANA

CITY           SKY/WX    TMP DP  RH WIND       PRES   REMARKS
BOZEMAN        CLOUDY    46  40  79 NE8       29.90F
DILLON         CLOUDY    43  38  82 SW10      29.91F
W YELLOWSTONE    N/A     32  32 100 CALM      30.01F
ENNIS          CLOUDY    41  37  87 S13       29.99F
THREE FORKS      N/A     47  -7  10 SW15      29.91S
TWIN BRIDGES     N/A     47  36  65 SE6       29.92F
$$

MTZ009-010-012-014-046-048-049-054-300500-
EAST SLOPES AND CENTRAL MONTANA

CITY           SKY/WX    TMP DP  RH WIND       PRES   REMARKS
CUT BANK       MOCLDY    46  33  60 W15       29.73F
GREAT FALLS    PTCLDY    50  34  54 SW22      29.77F
MALMSTROM AFB  CLOUDY    51  35  54 SW22      29.77F
HELENA         MOCLDY    49  39  68 NW5       29.86S
AUGUSTA        MOCLDY    44  32  64 SW5       29.78S
BOWMANS CRNR   MOCLDY    44  35  68 SW22      29.78S
CHOTEAU          N/A     48  34  57 SW16G23   29.75F
CONRAD           N/A     44  35  70 CALM      29.80R
FAIRFIELD      CLOUDY    47  33  57 S15       29.75F
POWER          MOCLDY    46  34  62 S10       29.76S
RAYNESFORD     CLOUDY    53  34  48 W20G25    29.79S
$$

MTZ011-013-016-021-045-047-050-051-300500-
NORTH CENTRAL MONTANA

CITY           SKY/WX    TMP DP  RH WIND       PRES   REMARKS
HAVRE          CLOUDY    50  37  61 SE3       29.72F
LEWISTOWN      CLOUDY    50  34  54 SW21      29.79F
N BAR RANCH    MOCLDY    46  30  53 CALM      29.83F
CHINOOK          N/A     52  36  54 E5        29.74F
DENTON         MOCLDY    49  33  54 S5        29.75F
FORT BENTON      N/A     55  36  47 MISG      29.76F
GEYSER         CLOUDY    48  34  58 W17       29.76F
GRASS RANGE    MOCLDY    49  34  56 SW8       29.76F
JUDITH GAP     MOCLDY    47  35  63 SW9       29.81F
STANFORD       CLOUDY    50  34  54 W14       29.79F
WINIFRED       MOCLDY    50  33  50 SW3       29.77F
$$

MTZ017>020-022>027-061-062-300500-
NORTHEAST MONTANA

CITY           SKY/WX    TMP DP  RH WIND       PRES   REMARKS
GLASGOW        CLOUDY    48  33  56 E7        29.79F
JORDAN           N/A     50  33  52 E7        29.79F
SIDNEY         CLEAR     39  30  70 NW6       29.84F
WOLF POINT     PTCLDY    46  36  68 E3        29.81F
MALTA          CLOUDY    52  32  46 CALM      29.76F
PLENTYWOOD       N/A     48  28  46 CALM      29.82F
POPLAR           N/A     46  32  57 E6        29.82F
SCOBEY           N/A     44  27  51 CALM      29.81
$$

MTZ028>42-056>058-300500-
SOUTHCENTRAL AND SOUTHEAST MONTANA

CITY           SKY/WX    TMP DP  RH WIND       PRES   REMARKS
BAKER          CLOUDY    37  29  72 SE5       29.87F
BILLINGS       CLOUDY    53  38  56 W3        29.83S
LIVINGSTON     CLOUDY    49  32  52 W16G23    29.87F
MILES CITY     CLOUDY    51  31  46 SE3       29.82F
BIG TIMBER     CLOUDY    46  36  66 W17G25    29.86S
EKALAKA          N/A     41  28  60 SE5       29.87F
FORSYTH          N/A     50  36  57 SE5       29.81F
HARLOWTON      MOCLDY    49  38  66 W24       29.83R
LAUREL           N/A     52  28  39 CALM      29.84S
$$

REGIONAL REPORTS...DAKOTAS

CITY           SKY/WX    TMP DP  RH WIND       PRES   REMARKS
WILLISTON      CLOUDY    45  31  58 SW5       29.83F
MINOT          CLOUDY    44  42  93 S5        29.84F
DICKINSON      CLEAR     40  29  64 S6        29.85S
BEACH            N/A     37  28  70 CALM      29.89S
TIOGA            N/A     39  34  81 SW7       29.85S
WATFORD CITY     N/A     39  34  81 CALM      29.84F
BISMARCK       CLOUDY    54  34  46 S20       29.92R
GRAND FORKS    PTCLDY    46  38  73 S20G31    29.97S
FARGO          CLEAR     45  38  76 S17       30.04F
BUFFALO SD       N/A     47  39  74 S15       29.82F
RAPID CITY     CLEAR     40  36  86 SE6       29.93F
$$

REGIONAL REPORTS...WYOMING/IDAHO/WASHINGTON

CITY           SKY/WX    TMP DP  RH WIND       PRES   REMARKS
GILLETTE         N/A     41  30  65 S9        29.86F
SHERIDAN       CLOUDY    38  33  82 CALM      29.85S
BUFFALO WY     CLEAR     42  30  62 W8        29.87F
CODY           CLOUDY    51  29  42 W16G23    29.91S
YELLOWSTONE LA   N/A     31  31 100 CALM      30.04F
IDAHO FALLS    CLOUDY    50  37  61 S15       29.99F
SALMON         CLOUDY    43  41  93 CALM      29.93F
BOISE          LGT RAIN  50  47  89 SE6       29.97S
SPOKANE        MOCLDY    48  43  82 SW16      29.82S
$$

REGIONAL REPORTS...ALBERTA

CITY           SKY/WX    TMP DP  RH WIND       PRES   REMARKS
EDMONTON       MOCLDY    36  32  87 E5        29.70S
CALGARY        MOCLDY    39  28  65 E2        29.63S
LETHBRIDGE     MOCLDY    39  28  65 W3        29.68S
MEDICINE HAT   MOCLDY    50  34  53 SE6       29.67F
WATERTON GATE    N/A     45  34  65 SW16G23     N/A
MILK RIVER       N/A     45  32  61 SW8         N/A
$$

REGIONAL REPORTS...SASKATCHEWAN

CITY           SKY/WX    TMP DP  RH WIND       PRES   REMARKS
SWIFT CURRENT  CLOUDY    48  25  40 S6        29.75F
REGINA         CLOUDY    43  34  70 SE5       29.78S
SASKATOON      MOCLDY    34  32  93 NE10      29.81S WCI  26
VAL MARIE        N/A     46  30  53 SE8         N/A
ROCKGLEN         N/A     43  28  56 W5          N/A
ASSINIBOIA       N/A     34  34 100 NE3         N/A
$$



USA.gov is the U.S. government's official web portal to all federal, state and local government web resources and services.